OH6NMY Weather Reports


time (UTC)temp
C
wind
direction
speed
KPH
gust
KPH
rain 1hr
cm
rain 24hr
cm
rain mn
cm
humidity
%
barometer
mb
20260507085923 8 186 4.8 11.3 0.00 0.00 0.00 30 1016.1
20260507085024 8 183 6.4 12.9 0.00 0.00 0.00 29 1016.1
20260507084124 8 218 8.0 11.3 0.00 0.00 0.00 28 1016.1
20260507083224 8 178 8.0 12.9 0.00 0.00 0.00 28 1016.1
20260507082535 8 168 9.7 17.7 0.00 0.00 0.00 29 1016.0
20260507081424 8 149 9.7 17.7 0.00 0.00 0.00 31 1016.1
20260507080524 8 159 9.7 12.9 0.00 0.00 0.00 31 1016.1
20260507075624 8 167 8.0 11.3 0.00 0.00 0.00 32 1015.9
20260507074724 8 139 8.0 11.3 0.00 0.00 0.00 32 1016.0
20260507073824 7 132 11.3 17.7 0.00 0.00 0.00 32 1015.7
20260507072924 7 153 11.3 17.7 0.00 0.00 0.00 32 1016.0
20260507072023 8 193 8.0 12.9 0.00 0.00 0.00 31 1016.1
20260507071124 7 153 8.0 12.9 0.00 0.00 0.00 32 1016.2
20260507070223 7 170 8.0 11.3 0.00 0.00 0.00 34 1016.3
20260507065324 7 154 9.7 12.9 0.00 0.00 0.00 36 1016.4
20260507064636 7 171 6.4 12.9 0.00 0.00 0.00 35 1016.5
20260507063524 7 184 8.0 9.7 0.00 0.00 0.00 36 1016.3
20260507062836 7 157 6.4 9.7 0.00 0.00 0.00 37 1016.2
20260507061724 6 154 6.4 11.3 0.00 0.00 0.00 43 1016.3
20260507060824 6 172 4.8 6.4 0.00 0.00 0.00 45 1016.0
20260507055924 6 150 6.4 9.7 0.00 0.00 0.00 45 1015.9
20260507055024 6 156 6.4 9.7 0.00 0.00 0.00 47 1015.9
20260507054124 5 150 3.2 6.4 0.00 0.00 0.00 47 1016.0
20260507053435 5 146 3.2 6.4 0.00 0.00 0.00 49 1015.9
20260507052324 5 148 6.4 9.7 0.00 0.00 0.00 50 1015.8
20260507051635 5 144 4.8 11.3 0.00 0.00 0.00 50 1016.0
20260507050523 4 161 6.4 9.7 0.00 0.00 0.00 53 1015.9
20260507045624 4 165 3.2 6.4 0.00 0.00 0.00 55 1016.0
20260507044937 3 152 3.2 6.4 0.00 0.00 0.00 58 1016.1
20260507043824 3 154 3.2 6.4 0.00 0.00 0.00 60 1016.0
20260507042924 2 162 3.2 6.4 0.00 0.00 0.00 63 1015.8
20260507042024 2 0 0.0 0.0 0.00 0.00 0.00 66 1015.8
20260507041124 1 160 1.6 6.4 0.00 0.00 0.00 67 1015.8
20260507040224 1 153 3.2 6.4 0.00 0.00 0.00 70 1015.9
20260507035324 0 151 1.6 6.4 0.00 0.00 0.00 72 1015.9
20260507034424 0 165 1.6 6.4 0.00 0.00 0.00 73 1016.3
20260507033735 0 160 3.2 6.4 0.00 0.00 0.00 75 1016.3
20260507032624 -1 157 0.0 3.2 0.00 0.00 0.00 78 1016.1
20260507031724 -1 0 0.0 0.0 0.00 0.00 0.00 79 1015.9
20260507031037 -1 0 0.0 0.0 0.00 0.00 0.00 80 1015.9
20260507025924 -2 176 0.0 3.2 0.00 0.00 0.00 81 1016.0
20260507025024 -2 0 0.0 0.0 0.00 0.00 0.00 81 1015.9
20260507024124 -2 0 0.0 0.0 0.00 0.00 0.00 82 1015.8
20260507023224 -2 0 0.0 0.0 0.00 0.00 0.00 82 1016.0
20260507022324 -2 0 0.0 0.0 0.00 0.00 0.00 82 1015.8
20260507021637 -2 0 0.0 0.0 0.00 0.00 0.00 82 1016.0
20260507020524 -2 0 0.0 0.0 0.00 0.00 0.00 83 1015.6
20260507015836 -2 0 0.0 0.0 0.00 0.00 0.00 83 1015.9
20260507014724 -2 0 0.0 0.0 0.00 0.00 0.00 84 1015.9
20260507013824 -3 0 0.0 0.0 0.00 0.00 0.00 84 1015.7
20260507012924 -2 0 0.0 0.0 0.00 0.00 0.00 83 1015.8
20260507012024 -2 0 0.0 0.0 0.00 0.00 0.00 82 1015.8
20260507011124 -2 0 0.0 0.0 0.00 0.00 0.00 82 1015.7
20260507010223 -2 0 0.0 0.0 0.00 0.00 0.00 81 1015.8
20260507005324 -2 0 0.0 0.0 0.00 0.00 0.00 80 1015.8
20260507004423 -2 0 0.0 0.0 0.00 0.00 0.00 80 1015.7
20260507003524 -1 0 0.0 0.0 0.00 0.00 0.00 79 1015.7
20260507002624 -1 0 0.0 0.0 0.00 0.00 0.00 79 1015.5
20260507001723 -2 0 0.0 0.0 0.00 0.00 0.00 80 1015.5
20260507000824 -2 0 0.0 0.0 0.00 0.00 0.00 80 1015.4
20260507000137 -2 0 0.0 0.0 0.00 0.00 0.00 81 1015.5
20260506235024 -2 0 0.0 0.0 0.00 0.00 0.00 80 1015.7
20260506234124 -2 0 0.0 0.0 0.00 0.00 0.00 81 1015.5
20260506233433 -2 0 0.0 0.0 0.00 0.00 0.00 81 1015.8
20260506232324 -2 0 0.0 0.0 0.00 0.00 0.00 82 1015.5
20260506231424 -1 0 0.0 0.0 0.00 0.00 0.00 80 1015.4
20260506230524 -1 225 0.0 3.2 0.00 0.00 0.00 79 1015.3
20260506225624 -1 0 0.0 0.0 0.00 0.00 0.00 79 1015.4
20260506224724 -1 0 0.0 0.0 0.00 0.00 0.00 79 1015.3
20260506223824 -1 0 0.0 0.0 0.00 0.00 0.00 77 1015.4
20260506222924 0 0 0.0 0.0 0.00 0.00 0.00 75 1015.2
20260506222024 0 0 0.0 0.0 0.00 0.00 0.00 74 1015.2
20260506221124 0 0 0.0 0.0 0.00 0.00 0.00 74 1015.1
20260506220223 0 0 0.0 0.0 0.00 0.00 0.00 74 1015.0
20260506215324 0 0 0.0 0.0 0.00 0.00 0.00 74 1014.9
20260506214424 0 0 0.0 0.0 0.00 0.00 0.00 74 1014.9
20260506213734 0 0 0.0 0.0 0.00 0.00 0.00 73 1015.0
20260506212623 0 0 0.0 0.0 0.00 0.00 0.00 73 1014.8
20260506211724 1 0 0.0 0.0 0.00 0.00 0.00 71 1014.7
20260506211036 1 0 0.0 0.0 0.00 0.00 0.00 71 1014.6
20260506205924 1 0 0.0 0.0 0.00 0.00 0.00 70 1014.5
20260506205024 1 0 0.0 0.0 0.00 0.00 0.00 72 1014.5
20260506204124 1 0 0.0 0.0 0.00 0.00 0.00 72 1014.5
20260506203224 1 0 0.0 0.0 0.00 0.00 0.00 71 1014.5
20260506202324 1 0 0.0 0.0 0.00 0.00 0.00 70 1014.5
20260506201423 2 0 0.0 0.0 0.00 0.00 0.00 67 1014.5
20260506200524 2 0 0.0 0.0 0.00 0.00 0.00 65 1014.2
20260506195624 3 0 0.0 0.0 0.00 0.00 0.00 62 1014.1
20260506194724 3 0 0.0 0.0 0.00 0.00 0.00 60 1014.2
20260506194034 3 289 0.0 6.4 0.00 0.00 0.00 59 1014.0
20260506192924 4 275 4.8 6.4 0.00 0.00 0.00 58 1014.1
20260506192024 4 276 6.4 6.4 0.00 0.00 0.00 58 1014.0
20260506191123 5 254 6.4 9.7 0.00 0.00 0.00 56 1014.1
20260506190223 5 259 6.4 11.3 0.00 0.00 0.00 56 1013.9
20260506185324 5 267 9.7 17.7 0.00 0.00 0.00 55 1014.0
20260506184424 5 265 11.3 14.5 0.00 0.00 0.00 55 1014.0
20260506183524 6 260 9.7 17.7 0.00 0.00 0.00 55 1013.8
20260506182624 6 256 11.3 17.7 0.00 0.00 0.00 55 1013.7
20260506181723 6 265 8.0 12.9 0.00 0.00 0.00 54 1013.7
20260506180824 7 270 9.7 11.3 0.00 0.00 0.00 52 1013.5
20260506180135 7 277 9.7 11.3 0.00 0.00 0.00 52 1013.6
20260506175238 7 270 8.0 12.9 0.00 0.00 0.00 51 1013.5
20260506174124 7 284 8.0 12.9 0.00 0.00 0.00 51 1013.3
20260506173224 7 273 8.0 12.9 0.00 0.00 0.00 50 1013.2
20260506172324 7 252 6.4 9.7 0.00 0.00 0.00 50 1013.2
20260506171424 8 251 6.4 9.7 0.00 0.00 0.00 49 1013.2
20260506170523 8 266 8.0 11.3 0.00 0.00 0.00 48 1013.1
20260506165624 8 257 8.0 11.3 0.00 0.00 0.00 46 1013.0
20260506164724 8 253 8.0 14.5 0.00 0.00 0.00 46 1012.9
20260506164037 8 268 6.4 14.5 0.00 0.00 0.00 46 1012.9
20260506162924 8 266 11.3 14.5 0.00 0.00 0.00 46 1012.9
20260506162024 8 288 9.7 14.5 0.00 0.00 0.00 46 1012.9
20260506161333 8 253 9.7 14.5 0.00 0.00 0.00 48 1012.8
20260506160224 7 271 11.3 17.7 0.00 0.00 0.00 49 1012.8
20260506155533 8 275 11.3 17.7 0.00 0.00 0.00 46 1012.7
20260506154424 8 276 12.9 20.9 0.00 0.00 0.00 48 1012.7
20260506153524 9 272 6.4 12.9 0.00 0.00 0.00 46 1012.6
20260506152623 7 265 9.7 12.9 0.00 0.00 0.00 50 1012.7
20260506151724 7 266 9.7 17.7 0.00 0.00 0.00 49 1012.7
20260506151035 7 261 16.1 20.9 0.00 0.00 0.00 50 1012.5
20260506145923 8 270 9.7 14.5 0.00 0.00 0.00 48 1012.4
20260506145234 7 256 9.7 14.5 0.00 0.00 0.00 50 1012.7
20260506144337 7 260 11.3 14.5 0.00 0.00 0.00 51 1012.8
20260506143224 8 260 14.5 17.7 0.00 0.00 0.00 48 1012.7
20260506142323 8 267 12.9 22.5 0.00 0.00 0.00 48 1012.7
20260506141424 8 281 14.5 22.5 0.00 0.00 0.00 51 1012.5
20260506140523 7 288 16.1 22.5 0.00 0.00 0.00 50 1012.9
20260506135624 7 268 14.5 22.5 0.00 0.00 0.00 50 1012.7
20260506134724 7 277 12.9 22.5 0.00 0.00 0.00 52 1012.8
20260506133823 7 277 11.3 14.5 0.00 0.00 0.00 52 1012.7
20260506133136 7 266 11.3 17.7 0.00 0.00 0.00 52 1012.7
20260506132024 7 263 17.7 22.5 0.00 0.00 0.00 53 1012.5
20260506131124 7 278 14.5 20.9 0.00 0.00 0.00 52 1012.4
20260506130438 7 277 14.5 22.5 0.00 0.00 0.00 53 1012.5
20260506125324 7 294 19.3 33.8 0.00 0.00 0.00 52 1012.4
20260506124424 7 292 16.1 24.1 0.00 0.00 0.00 53 1012.5
20260506123523 6 287 20.9 27.4 0.00 0.00 0.00 54 1012.2
20260506122624 7 287 19.3 27.4 0.00 0.00 0.00 53 1012.4
20260506121724 7 281 17.7 25.7 0.00 0.00 0.00 52 1012.1
20260506120824 7 274 24.1 29.0 0.00 0.00 0.00 50 1011.8
20260506115924 7 290 19.3 29.0 0.00 0.00 0.00 48 1011.8
20260506115024 7 272 19.3 25.7 0.00 0.00 0.00 46 1011.7
20260506114334 7 277 19.3 25.7 0.00 0.00 0.00 46 1011.8
20260506113224 8 292 24.1 33.8 0.00 0.00 0.00 42 1011.5
20260506112534 8 300 25.7 33.8 0.00 0.00 0.00 39 1011.4
20260506111424 8 297 19.3 33.8 0.00 0.00 0.00 41 1011.3
20260506110524 7 276 20.9 32.2 0.00 0.00 0.00 40 1011.4
20260506105836 8 296 20.9 32.2 0.00 0.00 0.00 40 1011.3
20260506104933 8 291 20.9 27.4 0.00 0.00 0.00 41 1011.2
20260506103824 8 269 16.1 24.1 0.00 0.00 0.00 42 1011.0
20260506102924 7 274 19.3 35.4 0.00 0.00 0.00 44 1010.9
20260506102024 7 280 19.3 35.4 0.00 0.00 0.00 44 1010.9
20260506101124 7 259 16.1 25.7 0.00 0.00 0.00 43 1011.1
20260506100223 7 282 14.5 22.5 0.00 0.00 0.00 42 1010.9
20260506095323 8 270 16.1 20.9 0.00 0.00 0.00 43 1010.6
20260506094424 7 281 16.1 20.9 0.00 0.00 0.00 45 1010.8
20260506093524 7 266 19.3 35.4 0.00 0.00 0.00 42 1010.4
20260506092624 7 293 24.1 35.4 0.00 0.00 0.00 45 1010.3
20260506091723 7 276 19.3 24.1 0.00 0.00 0.00 44 1010.3
20260506090824 7 277 19.3 24.1 0.00 0.00 0.00 46 1010.4